Wind_Speed
5 5 5 5 5 5 5 4 4 4 4 4 4 5 5 6 7 7 8 8 9 9 9 9 9 9 9 9 8 8 8 8 8 8 8 7 7 7 7 7 7 7 7
6 6 6 6 6 6 5 4 4 4 5 5 5 6 6 7 7 8 8 9 9 10 10 10 10 10 9 9 9 9 9 9 8 8 8 8 7 7 7 7 8 8 8
7 8 8 8 7 6 5 5 5 5 6 6 6 7 7 8 8 8 9 9 9 10 10 10 10 10 10 10 10 10 9 9 9 9 8 8 8 8 8 8 8 8 9
8 9 10 9 7 7 6 6 6 7 7 7 8 8 8 9 9 9 9 10 10 10 11 11 11 11 11 10 10 10 10 10 10 9 9 9 9 9 9 9 9 9 9
9 10 10 10 8 8 8 8 8 9 9 9 9 9 9 10 10 10 10 10 10 11 11 11 11 11 11 11 11 11 11 11 11 11 10 10 10 10 10 10 10 10 10
11 10 11 10 9 9 9 9 9 10 10 10 10 10 10 10 10 10 11 11 11 11 12 12 12 12 12 12 12 12 12 12 12 12 11 11 11 11 11 11 10 10 10
12 11 11 11 11 11 11 11 11 11 11 11 11 11 11 11 11 11 11 11 11 12 12 12 12 12 12 13 13 13 13 13 12 12 12 12 12 11 11 11 11 11 11
13 12 11 12 12 12 13 12 12 12 12 12 12 11 11 12 12 12 12 12 12 12 13 13 13 13 13 13 13 13 13 13 13 13 13 12 12 12 12 12 12 12 12
13 14 13 13 13 14 14 14 13 12 12 13 12 12 12 12 12 13 13 13 13 13 13 14 13 14 14 14 14 14 14 14 14 14 13 13 13 14 14 14 13 13 13
16 16 15 14 15 15 15 15 14 13 13 13 13 13 12 12 13 13 14 14 14 14 14 14 14 15 15 15 15 14 14 14 14 14 14 14 14 14 14 15 15 14 14
16 15 15 16 16 15 15 14 14 13 13 13 13 13 13 13 13 14 15 15 15 15 15 15 15 15 16 15 15 15 15 15 15 15 15 16 16 15 16 16 16 16 16
16 16 15 16 16 16 15 15 15 14 13 14 14 14 14 14 14 15 15 16 16 16 16 16 16 16 16 15 15 16 16 16 16 16 16 17 17 17 17 17 17 17 17
17 16 16 15 15 16 16 16 15 14 14 15 15 15 15 15 15 15 16 17 17 16 16 16 16 16 16 16 16 16 16 17 17 17 17 18 18 19 18 18 18 18 18
18 18 17 16 16 17 17 17 16 16 15 16 16 16 16 15 16 16 16 17 17 17 17 17 17 17 17 17 17 18 18 18 18 18 18 18 19 19 19 20 19 19 19
18 17 17 17 17 17 17 16 16 16 16 17 17 17 17 17 17 17 17 17 17 17 18 18 18 18 18 18 18 19 20 19 19 19 19 19 20 20 20 20 20 20 20
18 18 17 16 17 16 16 17 17 17 17 17 17 16 17 17 17 18 18 17 17 18 18 18 18 18 18 18 19 20 20 21 20 20 20 20 21 20 20 21 21 21 21
18 18 18 17 17 17 17 16 16 17 17 17 17 17 18 17 18 18 18 19 19 19 19 18 19 19 19 19 20 21 21 22 21 21 21 21 20 21 21 21 22 22 23
18 17 17 17 17 17 17 16 17 17 17 17 16 17 18 18 18 19 19 20 20 20 20 19 19 20 20 21 21 22 22 22 21 22 22 22 21 21 22 22 23 23 24
16 16 15 15 15 16 16 17 17 18 17 17 17 19 18 18 19 19 20 21 21 20 20 19 20 21 21 21 22 22 21 21 21 22 22 22 22 22 23 23 23 24 25
15 15 15 14 15 15 15 16 17 16 16 17 18 19 18 18 19 20 21 20 20 20 20 20 20 21 21 21 21 21 20 20 20 21 21 21 22 22 23 24 25 25 25
14 14 14 15 15 15 15 15 15 15 15 16 17 18 18 19 19 20 20 20 20 20 20 21 20 20 20 20 19 19 19 20 20 20 21 21 21 22 23 23 24 24 24
15 13 13 13 13 13 13 14 15 15 15 15 16 17 17 18 19 20 20 20 19 20 20 20 20 19 19 19 19 20 20 21 21 21 21 22 22 23 23 23 24 24 24
16 15 14 13 13 13 14 15 16 17 16 16 17 17 18 18 18 18 19 20 19 20 20 20 20 20 19 19 20 20 21 21 21 21 21 21 22 22 22 23 23 24 25
16 16 15 14 13 14 14 15 16 17 17 17 17 16 17 17 17 17 18 19 20 20 20 19 19 19 19 19 20 20 21 21 21 20 21 21 21 21 21 22 23 24 26
15 14 14 14 14 14 15 16 17 18 17 17 16 16 17 17 17 17 17 17 19 19 20 19 19 19 19 20 20 20 20 20 20 20 20 20 21 21 22 22 23 25 26
13 13 14 14 13 13 14 15 16 17 16 16 16 16 16 17 18 17 17 17 18 19 19 19 19 19 20 20 20 20 20 20 20 21 20 21 21 22 23 23 24 25 26
Wind_Direction
316 317 312 306 300 299 304 316 326 329 326 325 326 322 322 324 324 321 318 317 317 318 317 316 316 319 319 317 313 308 305 305 305 306 303 300 292 284 280 273 264 259 258
304 309 307 309 299 292 293 299 310 313 311 311 310 310 312 312 313 316 316 311 310 312 311 311 310 310 311 310 307 305 302 302 303 303 301 298 295 290 283 276 269 265 263
298 301 302 301 296 287 283 284 291 298 301 304 302 301 303 304 306 306 309 308 307 307 306 307 307 306 306 304 301 299 298 297 298 297 294 292 286 284 281 273 268 264 261
300 299 296 295 289 280 275 276 283 289 293 295 296 295 297 297 300 302 304 304 305 307 305 305 305 302 302 303 301 298 296 292 290 287 284 284 282 279 277 273 270 266 261
296 295 290 290 282 278 274 275 279 283 285 288 290 292 294 296 297 298 301 301 302 303 305 303 301 299 299 299 298 297 294 288 285 283 279 275 276 277 275 273 270 265 262
291 291 287 281 277 279 277 276 278 280 281 283 284 286 289 293 297 298 299 299 298 299 301 300 298 296 296 297 296 293 291 287 284 280 277 275 273 273 273 272 269 268 264
285 286 284 278 277 278 278 277 277 279 280 278 279 283 283 288 292 293 294 294 295 296 297 297 297 294 293 294 293 292 290 285 284 281 278 276 273 271 271 269 268 269 265
285 283 282 282 279 280 280 278 276 276 276 275 276 279 281 284 285 287 291 292 292 292 293 293 293 292 291 291 289 289 288 284 281 283 282 278 274 272 272 268 270 269 265
287 286 284 286 282 280 279 278 275 273 273 273 276 276 280 283 284 285 287 289 291 290 292 292 291 292 292 292 289 287 285 283 282 280 279 277 274 274 275 273 271 267 265
287 286 284 281 280 277 274 272 270 269 268 269 271 273 275 278 281 283 284 287 288 289 289 290 287 287 289 290 289 286 284 283 281 279 277 275 273 273 275 275 271 267 264
282 282 280 278 277 276 274 270 268 266 264 264 269 272 273 274 278 281 281 283 284 284 285 285 285 286 287 286 287 287 286 283 280 279 278 276 273 272 272 272 270 267 263
277 277 277 274 273 273 275 272 270 265 265 266 268 272 273 275 276 278 281 282 284 283 283 283 281 282 283 284 286 286 287 285 281 280 278 276 274 270 269 268 268 267 264
272 270 274 268 272 273 273 272 268 266 265 266 267 269 273 274 276 278 281 283 283 281 280 281 280 278 278 282 285 285 285 284 283 278 276 274 273 272 269 266 267 266 263
271 270 271 268 272 272 271 268 266 267 265 265 265 267 270 273 274 277 281 282 281 281 281 280 279 278 278 280 282 283 283 283 282 282 278 276 276 273 270 266 265 265 263
274 271 270 268 267 266 264 265 266 265 266 265 265 265 266 269 273 275 279 282 282 283 286 285 282 281 279 280 281 281 281 282 283 281 280 277 275 273 269 267 266 265 264
275 272 268 268 266 262 261 265 264 261 264 264 263 261 264 268 273 274 277 278 282 284 285 284 283 284 283 282 282 281 279 279 282 281 280 278 275 272 269 267 267 267 266
275 271 269 267 267 263 261 263 258 260 263 260 259 260 262 268 271 272 275 277 280 281 282 283 282 284 285 285 283 281 280 279 281 282 283 280 276 272 268 267 267 266 266
271 268 267 266 265 264 263 264 262 263 261 258 259 263 265 270 272 274 275 277 278 279 281 284 285 285 286 286 285 283 280 279 280 283 282 280 276 273 269 268 268 267 265
270 267 267 267 265 264 264 261 261 262 259 257 258 262 266 270 273 274 275 277 276 277 279 282 286 286 286 287 286 285 283 281 281 282 282 279 275 273 271 269 269 267 266
268 268 269 265 265 266 265 264 261 262 260 256 259 263 267 271 275 274 276 275 274 275 278 281 285 287 287 287 286 285 284 283 284 283 282 280 277 275 274 271 270 269 268
268 271 272 269 265 266 267 265 261 264 265 263 263 266 268 272 274 274 275 275 274 276 278 281 285 289 288 286 285 285 284 284 285 283 283 282 279 276 275 272 271 271 270
266 268 271 267 267 267 267 262 260 264 268 269 267 271 271 272 272 272 273 273 277 279 281 282 285 287 287 286 286 287 287 286 286 286 283 280 278 277 275 273 272 271 270
268 271 270 267 267 264 263 262 262 266 269 270 269 271 272 272 272 272 274 276 277 278 278 280 282 285 287 287 288 287 287 288 288 289 286 282 279 277 276 275 273 272 271
270 270 269 269 271 266 261 262 268 268 268 270 269 271 274 276 277 278 277 277 276 277 280 280 282 285 285 286 287 287 288 287 288 290 290 287 282 279 278 276 276 274 273
268 269 268 269 269 265 264 263 267 267 267 268 270 273 274 275 278 282 281 278 277 277 277 277 279 284 283 283 284 286 287 289 291 291 291 289 285 283 281 280 279 278 276
268 268 269 271 268 265 262 263 266 270 270 265 268 270 273 276 277 279 281 278 278 279 279 276 278 282 282 281 282 283 286 289 293 295 293 290 287 286 284 283 282 281 280
Height
5881 5880 5880 5880 5880 5880 5880 5880 5880 5880 5881 5881 5881 5882 5882 5883 5883 5883 5883 5883 5883 5883 5883 5883 5883 5882 5882 5881 5881 5881 5880 5880 5880 5880 5880 5880 5880 5880 5881 5881 5882 5882 5883
5880 5880 5879 5879 5879 5879 5879 5879 5879 5880 5880 5880 5880 5881 5881 5882 5882 5882 5882 5882 5882 5882 5882 5882 5881 5881 5881 5880 5880 5879 5879 5879 5879 5879 5879 5879 5879 5879 5879 5880 5880 5881 5881
5878 5878 5878 5878 5878 5878 5878 5878 5878 5878 5879 5879 5879 5880 5880 5880 5880 5881 5881 5880 5880 5880 5880 5880 5880 5880 5879 5879 5878 5878 5878 5878 5878 5878 5878 5878 5878 5878 5878 5878 5879 5879 5880
5877 5877 5876 5876 5876 5876 5876 5876 5877 5877 5877 5877 5878 5878 5878 5879 5879 5879 5879 5879 5879 5878 5878 5878 5878 5878 5878 5877 5877 5877 5877 5877 5876 5876 5876 5876 5876 5876 5876 5877 5877 5878 5878
5875 5875 5875 5875 5875 5875 5875 5875 5875 5875 5876 5876 5876 5876 5877 5877 5877 5877 5877 5877 5877 5877 5876 5876 5876 5876 5876 5875 5875 5875 5875 5875 5875 5875 5874 5874 5874 5875 5875 5875 5875 5876 5876
5873 5873 5873 5873 5873 5873 5873 5873 5873 5874 5874 5874 5874 5875 5875 5875 5875 5875 5875 5875 5875 5875 5874 5874 5874 5874 5874 5873 5873 5873 5872 5872 5872 5872 5872 5872 5872 5873 5873 5873 5873 5874 5874
5871 5870 5870 5871 5871 5871 5871 5871 5871 5872 5872 5872 5872 5872 5873 5873 5873 5873 5873 5872 5872 5872 5872 5872 5872 5871 5871 5871 5870 5870 5870 5870 5870 5870 5870 5870 5870 5870 5870 5870 5871 5871 5872
5868 5868 5868 5868 5868 5868 5869 5869 5869 5869 5869 5870 5870 5870 5870 5871 5870 5870 5870 5870 5870 5870 5869 5869 5869 5869 5869 5868 5868 5868 5867 5867 5867 5867 5867 5867 5868 5868 5868 5868 5868 5869 5869
5866 5866 5865 5865 5865 5865 5866 5866 5866 5866 5867 5867 5868 5868 5868 5868 5868 5868 5868 5868 5867 5867 5867 5867 5866 5866 5866 5866 5865 5865 5865 5864 5864 5864 5864 5864 5865 5865 5865 5865 5866 5866 5866
5863 5863 5863 5862 5862 5863 5863 5863 5863 5863 5864 5864 5865 5865 5865 5865 5865 5865 5865 5865 5865 5865 5864 5864 5864 5863 5863 5863 5862 5862 5862 5861 5861 5861 5861 5861 5861 5861 5862 5862 5862 5863 5863
5859 5859 5859 5859 5859 5859 5860 5860 5860 5860 5860 5861 5861 5861 5862 5862 5863 5863 5862 5862 5862 5862 5861 5861 5861 5860 5860 5860 5859 5859 5859 5858 5858 5858 5858 5858 5858 5858 5858 5858 5859 5859 5860
5856 5856 5856 5855 5856 5856 5856 5857 5857 5857 5858 5858 5858 5858 5859 5859 5859 5859 5859 5859 5859 5858 5858 5858 5857 5857 5857 5856 5856 5856 5855 5855 5855 5855 5854 5854 5854 5854 5854 5854 5855 5855 5856
5852 5852 5852 5852 5852 5852 5853 5853 5854 5854 5854 5854 5855 5855 5855 5856 5856 5855 5856 5855 5855 5855 5855 5854 5854 5854 5853 5853 5853 5852 5852 5851 5851 5851 5850 5850 5850 5850 5850 5850 5851 5851 5852
5848 5848 5848 5848 5848 5848 5849 5849 5850 5850 5850 5851 5851 5851 5852 5852 5852 5852 5852 5852 5851 5851 5851 5850 5850 5850 5850 5849 5849 5848 5848 5847 5847 5846 5846 5846 5845 5845 5845 5846 5846 5847 5848
5843 5843 5844 5844 5844 5844 5844 5845 5846 5846 5847 5847 5848 5848 5848 5848 5848 5848 5848 5848 5847 5847 5847 5846 5846 5846 5846 5845 5845 5844 5843 5843 5842 5842 5841 5841 5841 5840 5840 5841 5842 5842 5843
5839 5839 5839 5840 5840 5840 5840 5841 5841 5842 5842 5843 5843 5844 5844 5844 5844 5845 5844 5844 5844 5843 5843 5842 5842 5842 5841 5841 5840 5839 5839 5838 5837 5837 5836 5836 5835 5835 5835 5836 5837 5837 5838
5834 5834 5834 5835 5835 5836 5836 5836 5837 5837 5837 5838 5839 5839 5840 5840 5840 5840 5840 5840 5840 5839 5839 5838 5838 5837 5837 5836 5835 5834 5834 5833 5832 5831 5831 5830 5829 5829 5829 5830 5831 5832 5832
5829 5829 5830 5830 5830 5831 5831 5832 5832 5831 5832 5834 5834 5835 5835 5836 5836 5836 5836 5836 5835 5835 5834 5834 5833 5832 5832 5831 5830 5829 5828 5827 5827 5826 5825 5824 5824 5824 5824 5824 5825 5826 5827
5824 5825 5825 5825 5825 5826 5827 5827 5828 5828 5829 5829 5830 5831 5831 5831 5831 5831 5831 5831 5830 5830 5829 5829 5828 5828 5827 5826 5824 5823 5822 5822 5821 5820 5819 5819 5818 5818 5818 5818 5819 5819 5820
5820 5821 5821 5821 5822 5822 5823 5823 5824 5824 5825 5825 5826 5826 5827 5827 5827 5827 5826 5826 5825 5825 5825 5824 5823 5822 5821 5820 5819 5818 5817 5816 5816 5815 5814 5813 5812 5812 5812 5812 5812 5813 5814
5816 5816 5817 5817 5817 5818 5819 5819 5820 5821 5821 5821 5821 5822 5822 5822 5822 5822 5822 5821 5821 5820 5820 5819 5818 5817 5816 5815 5814 5813 5812 5811 5811 5809 5808 5807 5807 5806 5806 5806 5806 5807 5807
5813 5813 5813 5813 5813 5814 5815 5816 5816 5817 5817 5817 5817 5817 5818 5818 5817 5817 5817 5816 5816 5815 5814 5814 5813 5812 5811 5810 5809 5808 5808 5807 5805 5804 5803 5801 5801 5800 5800 5800 5800 5800 5801
5808 5808 5809 5809 5809 5810 5811 5812 5812 5812 5813 5813 5813 5813 5813 5813 5813 5812 5812 5811 5811 5810 5809 5809 5808 5807 5807 5805 5804 5804 5803 5802 5800 5799 5797 5796 5795 5794 5794 5794 5794 5794 5794
5804 5805 5806 5806 5806 5806 5807 5808 5808 5809 5809 5809 5808 5808 5808 5808 5808 5807 5807 5806 5806 5805 5804 5804 5803 5802 5802 5801 5800 5799 5798 5797 5795 5794 5792 5790 5789 5788 5788 5788 5787 5787 5787
5801 5801 5802 5802 5802 5803 5803 5804 5804 5805 5805 5804 5804 5804 5804 5803 5803 5802 5802 5801 5801 5800 5799 5799 5798 5797 5797 5796 5795 5794 5793 5791 5790 5789 5787 5785 5784 5783 5782 5781 5781 5780 5779
5797 5798 5798 5799 5799 5799 5799 5800 5800 5800 5800 5800 5800 5800 5799 5799 5798 5798 5797 5796 5796 5795 5794 5794 5794 5793 5792 5791 5790 5789 5788 5787 5785 5784 5782 5781 5779 5777 5776 5775 5774 5773 5771